| time (UTC) | temp F | wind direction | speed knots | gust knots | rain 1hr in | rain 24hr in | rain mn in | humidity % | barometer mb |
| 20260503183033 | 75 | 231 | 7.8 | 17.4 | 0.00 | 0.00 | 0.00 | 26 | 1013.6 |
| 20260503181533 | 75 | 224 | 7.8 | 16.5 | 0.00 | 0.00 | 0.00 | 27 | 1013.9 |
| 20260503180026 | 74 | 181 | 5.2 | 14.8 | 0.00 | 0.00 | 0.00 | 29 | 1014.1 |
| 20260503174527 | 74 | 179 | 6.1 | 13.0 | 0.00 | 0.00 | 0.00 | 29 | 1014.4 |
| 20260503173022 | 74 | 274 | 8.7 | 14.8 | 0.00 | 0.00 | 0.00 | 29 | 1014.8 |
| 20260503171517 | 72 | 117 | 6.1 | 13.9 | 0.00 | 0.00 | 0.00 | 31 | 1015.1 |
| 20260503081547 | 49 | 219 | 4.3 | 10.4 | 0.00 | 0.01 | 0.00 | 60 | 1017.7 |
| 20260503071540 | 50 | 217 | 4.3 | 8.7 | 0.00 | 0.01 | 0.00 | 51 | 1018.2 |
| 20260503054528 | 52 | 222 | 2.6 | 4.3 | 0.00 | 0.01 | 0.00 | 41 | 1018.1 |
| 20260503053016 | 53 | 217 | 0.9 | 4.3 | 0.00 | 0.01 | 0.00 | 40 | 1018.1 |
| 20260503051514 | 54 | 212 | 1.7 | 5.2 | 0.00 | 0.01 | 0.00 | 40 | 1018.3 |
| 20260503050014 | 52 | 202 | 0.9 | 3.5 | 0.00 | 0.01 | 0.00 | 41 | 1018.2 |
| 20260503044513 | 53 | 221 | 0.9 | 3.5 | 0.00 | 0.01 | 0.01 | 39 | 1018.2 |
| 20260503043008 | 53 | 213 | 0.0 | 1.7 | 0.00 | 0.01 | 0.01 | 38 | 1018.1 |
| 20260503041509 | 54 | 231 | 0.9 | 3.5 | 0.00 | 0.01 | 0.01 | 36 | 1018.2 |
| 20260503040008 | 54 | 274 | 0.9 | 2.6 | 0.00 | 0.01 | 0.01 | 37 | 1018.2 |
| 20260503034508 | 54 | 274 | 0.0 | 0.9 | 0.00 | 0.01 | 0.01 | 36 | 1018.2 |
| 20260503033014 | 54 | 274 | 0.0 | 0.0 | 0.00 | 0.01 | 0.01 | 36 | 1018.1 |
| 20260503031507 | 55 | 274 | 0.0 | 0.9 | 0.00 | 0.01 | 0.01 | 35 | 1017.9 |
| 20260503030007 | 56 | 274 | 0.0 | 0.0 | 0.00 | 0.01 | 0.01 | 34 | 1017.7 |
| 20260503024506 | 55 | 274 | 0.0 | 0.0 | 0.00 | 0.01 | 0.01 | 35 | 1017.6 |
| 20260503023004 | 56 | 274 | 0.0 | 0.0 | 0.00 | 0.01 | 0.01 | 34 | 1017.5 |
| 20260503021504 | 57 | 274 | 0.0 | 0.0 | 0.00 | 0.01 | 0.01 | 32 | 1017.5 |
| 20260503020003 | 59 | 274 | 0.0 | 0.0 | 0.00 | 0.01 | 0.01 | 28 | 1017.3 |
| 20260503014503 | 63 | 274 | 0.0 | 0.0 | 0.00 | 0.01 | 0.01 | 27 | 1017.2 |
| 20260503013002 | 65 | 274 | 0.9 | 1.7 | 0.00 | 0.01 | 0.01 | 25 | 1017.1 |
| 20260503011503 | 68 | 275 | 0.0 | 3.5 | 0.00 | 0.01 | 0.01 | 22 | 1016.9 |
| 20260503010003 | 71 | 275 | 1.7 | 5.2 | 0.00 | 0.01 | 0.01 | 21 | 1017.0 |
| 20260503004501 | 72 | 200 | 0.0 | 1.7 | 0.00 | 0.01 | 0.01 | 20 | 1017.0 |
| 20260503003107 | 71 | 200 | 0.9 | 2.6 | 0.00 | 0.01 | 0.01 | 20 | 1017.0 |
| 20260503001612 | 69 | 212 | 0.9 | 5.2 | 0.00 | 0.01 | 0.01 | 21 | 1017.1 |
| 20260503000046 | 73 | 185 | 0.9 | 4.3 | 0.00 | 0.01 | 0.01 | 20 | 1017.2 |
| 20260502234629 | 72 | 214 | 0.0 | 6.1 | 0.00 | 0.01 | 0.01 | 21 | 1017.3 |
| 20260502233046 | 70 | 186 | 0.0 | 4.3 | 0.00 | 0.01 | 0.01 | 22 | 1017.5 |
| 20260502231631 | 71 | 230 | 1.7 | 8.7 | 0.00 | 0.01 | 0.01 | 20 | 1017.6 |
| 20260502230051 | 71 | 188 | 1.7 | 6.1 | 0.00 | 0.01 | 0.01 | 20 | 1017.7 |
| 20260502224507 | 73 | 113 | 1.7 | 5.2 | 0.00 | 0.01 | 0.01 | 20 | 1017.6 |
| 20260502223053 | 71 | 311 | 0.0 | 1.7 | 0.00 | 0.01 | 0.01 | 21 | 1017.7 |
| 20260502221501 | 71 | 311 | 1.7 | 7.0 | 0.00 | 0.01 | 0.01 | 20 | 1018.0 |
| 20260502220057 | 73 | 180 | 2.6 | 8.7 | 0.00 | 0.01 | 0.01 | 20 | 1018.2 |
| 20260502214548 | 74 | 30 | 1.7 | 3.5 | 0.00 | 0.01 | 0.01 | 19 | 1018.4 |
| 20260502213021 | 72 | 311 | 1.7 | 7.0 | 0.00 | 0.01 | 0.01 | 20 | 1018.7 |
| 20260502211625 | 72 | 270 | 2.6 | 9.6 | 0.00 | 0.01 | 0.01 | 19 | 1019.0 |
| 20260502210047 | 72 | 274 | 0.0 | 5.2 | 0.00 | 0.01 | 0.01 | 20 | 1019.2 |
| 20260502204544 | 72 | 48 | 0.9 | 6.1 | 0.00 | 0.01 | 0.01 | 19 | 1019.5 |
| 20260502203040 | 72 | 86 | 3.5 | 7.0 | 0.00 | 0.01 | 0.01 | 19 | 1019.7 |
| 20260502201539 | 72 | 194 | 3.5 | 7.0 | 0.00 | 0.01 | 0.01 | 20 | 1019.9 |
| 20260502200037 | 72 | 207 | 1.7 | 5.2 | 0.00 | 0.01 | 0.01 | 19 | 1020.2 |
| 20260502194537 | 71 | 64 | 2.6 | 7.8 | 0.00 | 0.01 | 0.01 | 20 | 1020.3 |
| 20260502193036 | 70 | 21 | 1.7 | 5.2 | 0.00 | 0.01 | 0.01 | 21 | 1020.6 |
| 20260502191531 | 70 | 96 | 0.9 | 8.7 | 0.00 | 0.01 | 0.01 | 22 | 1020.9 |
| 20260502190030 | 70 | 35 | 4.3 | 8.7 | 0.00 | 0.01 | 0.01 | 21 | 1021.2 |
| 20260502184550 | 71 | 32 | 3.5 | 7.8 | 0.00 | 0.01 | 0.01 | 20 | 1021.2 |